Concordia, KS

3:20 AM CDT on August 29, 2016 (GMT -0500)
Blosser Municipal

Weather History for KCNK - August, 2013

Change the Weather History Date:

Monday, August 12, 2013

  Actual Average Record
Temperature  
Mean Temperature 73 °F 78 °F  
Max Temperature 83 °F 89 °F 116 °F (1936)
Min Temperature 63 °F 66 °F 45 °F (1964)
Degree Days  
Heating Degree Days 0 0  
Month to date heating degree days 0 0  
Since 1 June heating degree days 22 13  
Since 1 July heating degree days 7 0  
Cooling Degree Days 8 13  
Month to date cooling degree days 109 161  
Year to date cooling degree days 861 951  
Since 1 June cooling degree days 758 862  
Growing Degree Days 22 (Base 50)    
Moisture  
Dew Point 65 °F    
Average Humidity 79    
Maximum Humidity 100    
Minimum Humidity 58    
Precipitation  
Precipitation 1.06 in 0.11 in 1.63 in (1932)
Month to date precipitation 6.43 1.29  
Year to date precipitation 23.42 19.25  
Snow  
Snow 0.00 in 0.00 in T in (1919)
Month to date snowfall 0.0 0.0  
Year to date snowfall 20.3 13.7  
Since 1 July snowfall 0.0 0.0  
Snow Depth 0.00 in    
Sea Level Pressure  
Sea Level Pressure 30.03 in    
Wind  
Wind Speed 5 mph (NE)    
Max Wind Speed 24 mph    
Max Gust Speed 31 mph    
Visibility 8 miles    
Events Rain , Thunderstorm    
T = Trace of Precipitation, MM = Missing Value Source: NWS Daily Summary

Daily Weather History Graph

Daily Weather History Graph

Search for Another Location

Airport or City:

Trip Planner

Search our weather history database for the weather conditions in past years. The results will help you decide how hot, cold, wet, or windy it might be!

Date:

Astronomy

Aug. 12, 2013 Rise Set
Actual Time 6:40 AM CDT 8:29 PM CDT
Civil Twilight 6:11 AM CDT 8:58 PM CDT
Nautical Twilight 5:36 AM CDT 9:34 PM CDT
Astronomical Twilight 4:58 AM CDT 10:11 PM CDT
Moon 12:31 PM CDT (8/12) 11:25 PM CDT (8/12)
Length of Visible Light 14h 47m
Length of Day
13h 49m
Waxing Crescent, 31% of the Moon is Illuminated
Aug 12
Waxing Crescent
Aug 14
First Quarter
Aug 20
Full
Aug 28
Last Quarter
Sep 5
New

Hourly Weather History & Observations

Time (CDT) Temp. Heat Index Dew Point Humidity Pressure Visibility Wind Dir Wind Speed Gust Speed Precip Events Conditions
12:55 AM 72.0 °F - 68.0 °F 87% 29.99 in 10.0 mi SSE 6.9 mph - N/A   Clear
1:33 AM 71.6 °F - 68.0 °F 88% 30.01 in 10.0 mi ESE 6.9 mph - N/A Thunderstorm Overcast
1:55 AM 72.0 °F - 68.0 °F 87% 29.97 in 10.0 mi SSE 9.2 mph - 0.00 in Rain , Thunderstorm Light Thunderstorms and Rain
2:31 AM 68.0 °F - 64.4 °F 88% 30.07 in 4.0 mi NNW 16.1 mph 25.3 mph 0.04 in Rain , Thunderstorm Heavy Thunderstorms and Rain
2:37 AM 66.2 °F - 64.4 °F 94% 30.09 in 1.8 mi NW 20.7 mph 27.6 mph 0.12 in Rain , Thunderstorm Heavy Thunderstorms and Rain
2:39 AM 66.2 °F - 64.4 °F 94% 30.10 in 1.2 mi WNW 21.9 mph 27.6 mph 0.17 in Rain , Thunderstorm Heavy Thunderstorms and Rain
2:43 AM 66.2 °F - 64.4 °F 94% 30.13 in 0.8 mi WNW 24.2 mph 31.1 mph 0.34 in Rain , Thunderstorm Heavy Thunderstorms and Rain
2:46 AM 64.4 °F - 64.4 °F 100% 30.11 in 0.8 mi WNW 17.3 mph 31.1 mph 0.49 in Rain , Thunderstorm Heavy Thunderstorms and Rain
2:53 AM 64.4 °F - 64.4 °F 100% 30.07 in 0.8 mi North 15.0 mph 25.3 mph 0.76 in Rain , Thunderstorm Heavy Thunderstorms and Rain
2:55 AM 64.9 °F - 64.0 °F 97% 30.04 in 1.0 mi North 17.3 mph 25.3 mph 0.83 in Rain , Thunderstorm Heavy Thunderstorms and Rain
3:02 AM 64.4 °F - 64.4 °F 100% 30.08 in 1.8 mi North 17.3 mph 28.8 mph 0.08 in Rain , Thunderstorm Thunderstorms and Rain
3:09 AM 64.4 °F - 64.4 °F 100% 30.08 in 2.5 mi NNW 12.7 mph 24.2 mph 0.11 in Rain , Thunderstorm Thunderstorms and Rain
3:13 AM 64.4 °F - 62.6 °F 94% 30.08 in 8.0 mi North 15.0 mph 24.2 mph 0.11 in Rain , Thunderstorm Light Thunderstorms and Rain
3:46 AM 64.4 °F - 62.6 °F 94% 30.06 in 9.0 mi NNE 11.5 mph 23.0 mph 0.15 in Rain Light Rain
3:55 AM 64.9 °F - 62.1 °F 90% 30.02 in 10.0 mi NNE 5.8 mph - 0.16 in Rain Light Rain
4:55 AM 64.9 °F - 63.0 °F 93% 30.00 in 9.0 mi ENE 4.6 mph - 0.02 in Rain Light Rain
5:55 AM 64.9 °F - 62.1 °F 90% 29.99 in 10.0 mi ENE 4.6 mph - 0.05 in   Clear
6:55 AM 63.0 °F - 62.1 °F 97% 29.99 in 10.0 mi South 5.8 mph - N/A   Clear
7:55 AM 66.9 °F - 64.0 °F 90% 30.01 in 10.0 mi Calm Calm - N/A   Clear
8:50 AM 69.8 °F - 64.4 °F 83% 30.06 in 10.0 mi SSW 8.1 mph - N/A   Partly Cloudy
8:55 AM 69.1 °F - 64.9 °F 87% 30.03 in 10.0 mi SSW 8.1 mph - N/A   Scattered Clouds
9:12 AM 69.8 °F - 64.4 °F 83% 30.07 in 10.0 mi Calm Calm - N/A   Mostly Cloudy
9:55 AM 71.1 °F - 66.0 °F 84% 30.04 in 10.0 mi North 5.8 mph - N/A   Overcast
10:55 AM 72.0 °F - 66.0 °F 81% 30.05 in 10.0 mi NNE 4.6 mph - N/A   Overcast
11:55 AM 73.9 °F - 66.0 °F 76% 30.04 in 10.0 mi Calm Calm - N/A   Scattered Clouds
12:55 PM 77.0 °F - 66.9 °F 71% 30.03 in 10.0 mi East 4.6 mph - N/A   Clear
1:55 PM 79.0 °F - 64.9 °F 62% 30.02 in 10.0 mi Calm Calm - N/A   Clear
2:55 PM 81.0 °F 83.8 °F 68.0 °F 65% 30.01 in 10.0 mi Variable 4.6 mph - N/A   Clear
3:55 PM 81.0 °F 83.3 °F 66.9 °F 62% 30.00 in 10.0 mi East 9.2 mph - N/A   Clear
4:55 PM 82.0 °F 84.5 °F 66.9 °F 60% 29.99 in 10.0 mi East 4.6 mph - N/A   Clear
5:55 PM 82.0 °F 84.1 °F 66.0 °F 58% 29.97 in 10.0 mi ENE 5.8 mph - N/A   Clear
6:55 PM 80.1 °F 82.3 °F 66.9 °F 64% 29.97 in 10.0 mi East 5.8 mph - N/A   Clear
7:55 PM 78.1 °F - 66.0 °F 66% 29.97 in 10.0 mi East 3.5 mph - N/A   Clear
8:55 PM 73.9 °F - 64.9 °F 73% 30.00 in 10.0 mi Calm Calm - N/A   Scattered Clouds
9:55 PM 73.9 °F - 66.0 °F 76% 30.01 in 10.0 mi Calm Calm - N/A   Partly Cloudy
10:55 PM 71.1 °F - 66.9 °F 87% 30.03 in 10.0 mi Calm Calm - N/A   Mostly Cloudy